SBILSBCF

Guest
Details From SBIL - Ilheus
To SBCF - Tancredo Neves
Flight Number -
Tags Decoded
Created
Modified
Stats Distance 404 nm / 749 km
Max Altitude 0 ft / 0 m
Waypoints 2
Social Downloads 1
Likes 0
Share VATSIM

Download

Looking for another format? Having issues loading an existing format? Contact us
Advertisement - Login to hide

Notes

Decoded

Route

SBIL SBCF

ID Type Via Altitude Latitude Longitude Leg Dist Tot Dist Heading (true) Name
O SBIL APT - 0 ft / 0 m -14.81617˚ -39.04046˚ - 0 nm - -
O SBCF APT - 0 ft / 0 m -19.62356˚ -43.97828˚ 404 nm 404 nm 224° / 225° -

Altitude Profile

Advertisement - Login to hide

Weather


0- 5 10 15 20 25 30 35+ Temperature / ° C

Clouds and Precipitation
Forecast for 2018-05-27 00:00 UTC. Updated 2 hours ago

Ground ~20,000 ft ~40,000 ft Winds

SBIL

Details ICAO SBIL (IOS)
Name Ilheus
Region Brazil
Timezone America/Bahia (UTC-3.0)
Stats Elevation 15 ft / 5 m (AMSL)
Location -14.815964° -39.033197°
Runways 1
Magnetic Variation 23.700° W

METAR

Not found

TAF

TAF SBIL 262200Z 2700/2712 22006KT 7000 SCT010 BKN016 TX23/2700Z TN21/2707Z TEMPO 2700/2703 5000 RA BKN010 PROB40 TEMPO 2704/2707 4500 RA BKN010 TEMPO 2709/2712 4500 RA BKN010 RMK PEU

Decode

Departure Runways

ID Width Length Bearing (true) Bearing (mag) Surface Threshold Offset Overrun Length
11 148 ft / 45 m 5,127 ft / 1,563 m 88.35° 112.05° Asphalt 0 ft / 0 m 190 ft / 58 m
29 148 ft / 45 m 5,127 ft / 1,563 m 268.34° 292.04° Asphalt 0 ft / 0 m 160 ft / 49 m

SBCF

Details ICAO SBCF (CNF)
Name Tancredo Neves
Region Brazil
Timezone America/Sao_Paulo (UTC-3.0)
Stats Elevation 2,715 ft / 828 m (AMSL)
Location -19.633758° -43.968854°
Runways 1
Magnetic Variation 22.845° W

METAR

SBCF 270100Z 10009KT CAVOK 16/13 Q1024

Decode

TAF

TAF SBCF 262200Z 2700/2724 11005KT CAVOK TN16/2009Z TX26/2016Z BECMG 2704/2706 13005KT BECMG 2714/2716 09010KT BKN035 BECMG 2718/2720 8000 NSC BECMG 2721/2723 11005KT CAVOK RMK PDB

Decode

Destination Runways

ID Width Length Bearing (true) Bearing (mag) Surface Threshold Offset Overrun Length
16 148 ft / 45 m 9,872 ft / 3,009 m 138.97° 161.81° Asphalt 0 ft / 0 m 203 ft / 62 m
34 148 ft / 45 m 9,872 ft / 3,009 m 318.96° 341.80° Asphalt 0 ft / 0 m 203 ft / 62 m

Approach Navaids

Runway Type Ident Frequency Range Bearing (true) Bearing (mag) Slope Elevation
16 Localiser ICF 109.70 MHz 18 nm / 33 km 138.90° 161.75° - 2,716 ft / 828 m (AMSL)
16 Glidescope ICF 109.70 MHz 10 nm / 19 km 138.96° 161.81° 3.00° 2,716 ft / 828 m (AMSL)

Popular Alternatives